Home > Weather > Lowell > Past weeks

Flag for USA Past Weather in Lowell, Massachusetts, USA — Yesterday and Last 2 Weeks

Now
75 °F

Sunny.


Feels Like: 77 °F
Forecast: 64 / 88 °F
Wind: 3 mph from North

Location: Hanscom Field

Current Time: Aug 27, 2016 at 9:40:11 AM

Latest Report: Aug 27, 2016 at 8:56 AM


Visibility: 10 mi

Pressure: 30.20 "Hg

Humidity: 60%

Dew Point: 60 °F

Location of LowellLocation

Past Weather in Lowell — Graph

°F

Lowell Temperature Yesterday

Maximum temperature yesterday: 89 °F (at 3:56 PM)
Minimum temperature yesterday: 69 °F (at 10:56 PM)
Average temperature yesterday: 78 °F

High & Low Weather Summary for the Past Weeks

 TemperatureHumidityPressure
High97 °F (Aug 12, 2:56 PM)94% (Aug 12, 9:56 PM)30.31 "Hg (Aug 12, 9:56 PM)
Low51 °F (Aug 23, 5:56 AM)29% (Aug 23, 12:56 PM)29.75 "Hg (Aug 22, 2:56 AM)
Average75 °F65%30.02 "Hg
* Reported Aug 12 7:56 AM — Aug 27 7:56 AM, Lowell, Weather by CustomWeather, © 2016

Note: Actual official high and low records may vary slightly from our data, if they occured in-between our weather recording intervals... More about our weather records

Advertising

Lowell Weather History for the Previous 24 Hours

Scroll right to see more
 ConditionsComfort  
Time TempWeatherWind HumidityBarometerVisibility
7:56 AM
Sat, Aug 27
68 °FScattered clouds.No wind78%30.19 "Hg10 mi
6:56 AM63 °FClear.No wind87%30.18 "Hg10 mi
5:56 AM60 °FClear.No wind90%30.15 "Hg10 mi
4:56 AM60 °FClear.No wind90%30.13 "Hg10 mi
3:56 AM62 °FClear.No wind93%30.12 "Hg9 mi
2:56 AM64 °FClear.No wind87%30.11 "Hg10 mi
1:56 AM65 °FClear.No wind87%30.10 "Hg10 mi
12:56 AM67 °FClear.6 mph85%30.09 "Hg10 mi
11:56 PM
Fri, Aug 26
69 °FClear.5 mph84%30.07 "Hg10 mi
10:56 PM69 °FClear.No wind87%30.05 "Hg10 mi
9:56 PM71 °FClear.No wind84%30.03 "Hg10 mi
8:56 PM75 °FClear.No wind74%30.02 "Hg10 mi
7:56 PM77 °FPassing clouds.3 mph71%30.00 "Hg10 mi
6:56 PM83 °FPassing clouds.3 mph55%29.98 "Hg10 mi
5:56 PM87 °FSunny.8 mph45%29.97 "Hg10 mi
4:56 PM88 °FScattered clouds.9 mph48%29.96 "Hg10 mi
3:56 PM89 °FScattered clouds.10 mph50%29.96 "Hg10 mi
2:56 PM87 °FBroken clouds.9 mph55%29.94 "Hg10 mi
1:56 PM85 °FScattered clouds.8 mph65%29.96 "Hg10 mi
12:56 PM85 °FPartly sunny.10 mph59%29.95 "Hg10 mi
11:56 AM84 °FBroken clouds.N/A63%29.96 "Hg10 mi
10:56 AM80 °FBroken clouds.6 mph71%29.96 "Hg10 mi
9:56 AM78 °FOvercast.8 mph76%29.98 "Hg10 mi
Weather by CustomWeather, © 2016

See weather overviewHow to use our weather pages